Location: USNO
(38.9242°N, 77.0663°W)
Time: 11:09:03
(UTC-05:00)

Envisat - Pass Details

Date: 10 October 2017
Orbit: 764 x 766 km, 98.2° (Epoch: 14 December)

Event Time Altitude Azimuth Distance (km) Brightness Sun altitude
Exits shadow 21:07:48 52° 332° (NNW) 947 3.6 -30.0°
Drops below altitude 10° 21:11:40 10° 345° (NNW) 2,311 5.8 -30.7°
Sets 21:13:59 0° 346° (NNW) 3,242 6.6 -31.1°
